Location: Chateh
(58.6667°N, 118.6000°W)
Time: 09:03:13
(UTC+00:00)

O/OREOS (USA 219) - Pass Details

Date: 10 December 2023
Orbit: 621 x 646 km, 72.0° (Epoch: 22 May)

Event Time Altitude Azimuth Distance (km) Brightness Sun altitude
Exits shadow 11:30:02 11° 34° (NE) 1,936 ? -37.0°
Drops below altitude 10° 11:30:24 10° 38° (NE) 2,012 ? -37.0°
Sets 11:33:34 0° 61° (ENE) 2,924 ? -36.6°
